Il Post

 
 

Meteo Giornale » Osservazioni meteo Austria » Salisburgo

ore: 02:20 - Osservazioni Meteo Salisburgo
Lat. 47° 48' N Lon. 13° 0' E Alt. 430 metri s.l.m.

sereno Europe/Vienna

8 °C

Sereno

Temp. 24 Ore

7 °C

20 °C

Nord

3.7 Km/h

Dew point 7 °C

Umidità 93 %

Visibilità  10 Km

Il sole sorge alle ore 05:58

Il sole tramonta alle ore 20:13

Data e Ora Cielo e Fenomeni T °C DP °C Um. % Pres. hPa Vis. km Vento km/h
Oggi h: 02:20 sereno Sereno 8 7 93 1013 10 N 3.7
Oggi h: 01:50 sereno Sereno 8 7 93 1014 10 N 3.7
Oggi h: 01:20 sereno Sereno 9 8 93 1014 10 N 1.8
Oggi h: 00:50 sereno Sereno 9 8 93 1014 10 N 3.7
Oggi h: 00:20 sereno Sereno 11 8 81 1014 10 N 1.8
Ieri h: 23:50 sereno Sereno 12 9 81 1015 10 N 1.8
Ieri h: 23:20 nuvoloso Nuvoloso 11 8 81 1015 10 N 5.5
Ieri h: 22:50 nuvoloso Nuvoloso 12 9 81 1015 10 N 5.5
Ieri h: 22:20 poco_nuvoloso Poco Nuvoloso 14 9 71 1015 10 O/NO 7.4
Ieri h: 21:50 nuvoloso Nuvoloso 14 9 71 1015 10 N 3.7
Ieri h: 21:20 nuvoloso Nuvoloso 16 8 58 1015 10 E 11.1
Ieri h: 20:50 molto_nuvoloso Molto Nuvoloso 17 9 59 1015 10 E/NE 14.8
Ieri h: 20:20 molto_nuvoloso Molto Nuvoloso 17 8 55 1015 10 N 5.5
Ieri h: 19:50 molto_nuvoloso Molto Nuvoloso 18 8 51 1015 10 NE 13
Ieri h: 19:20 molto_nuvoloso Molto Nuvoloso 19 8 48 1015 10 N/NE 11.1
Ieri h: 18:50 molto_nuvoloso Molto Nuvoloso 20 8 45 1015 10 N/NE 7.4
Ieri h: 18:20 nuvoloso Nuvoloso 20 8 45 1015 10 N 9.3
Ieri h: 17:50 molto_nuvoloso Molto Nuvoloso 20 8 45 1015 10 N 5.5
Ieri h: 17:20 molto_nuvoloso Molto Nuvoloso 20 9 49 1015 10 E/NE 9.3
Ieri h: 16:50 molto_nuvoloso Molto Nuvoloso 19 7 45 1016 10 N 3.7
Ieri h: 16:20 molto_nuvoloso Molto Nuvoloso 19 8 48 1016 10 N/NE 13
Ieri h: 15:50 nuvoloso Nuvoloso 19 8 48 1016 10 N 11.1
Ieri h: 15:20 nuvoloso Nuvoloso 19 8 48 1017 10 N 7.4
Ieri h: 14:50 nuvoloso Nuvoloso 19 9 52 1017 10 NE 9.3
Ieri h: 14:20 nuvoloso Nuvoloso 19 8 48 1017 10 N/NE 13
Ieri h: 13:50 nuvoloso Nuvoloso 19 9 52 1017 10 NO 7.4
Ieri h: 13:20 nuvoloso Nuvoloso 19 11 59 1017 10 N 11.1
Ieri h: 12:50 molto_nuvoloso Molto Nuvoloso 18 11 63 1018 10 N/NO 13
Ieri h: 12:20 nuvoloso Nuvoloso 19 9 52 1018 10 N 9.3
Ieri h: 11:50 nuvoloso Nuvoloso 18 10 59 1018 10 N 9.3
Ieri h: 11:20 nuvoloso Nuvoloso 17 10 63 1019 10 N/NO 9.3
Ieri h: 10:50 nuvoloso Nuvoloso 17 10 63 1019 10 N 5.5
Ieri h: 10:20 molto_nuvoloso Molto Nuvoloso 16 10 67 1019 10 N 1.8
Ieri h: 09:50 molto_nuvoloso Molto Nuvoloso 15 9 67 1019 10 N 3.7
Ieri h: 09:20 molto_nuvoloso Molto Nuvoloso 14 9 71 1019 10 N 3.7
Ieri h: 08:50 molto_nuvoloso Molto Nuvoloso 13 9 76 1019 10 N 5.5
Ieri h: 08:20 molto_nuvoloso Molto Nuvoloso 11 9 87 1019 10 N 5.5
Ieri h: 07:50 molto_nuvoloso Molto Nuvoloso 10 8 87 1019 10 N 5.5
Ieri h: 07:20 molto_nuvoloso Molto Nuvoloso 8 8 100 1019 10 N 5.5
Ieri h: 06:50 molto_nuvoloso Molto Nuvoloso 7 6 93 1019 10 N 3.7
Ieri h: 06:20 molto_nuvoloso Molto Nuvoloso 8 7 93 1019 10 N 5.5
Ieri h: 05:50 nebbia Nebbia a Strati 8 8 100 1019 10 N 3.7
Ieri h: 05:20 molto_nuvoloso Molto Nuvoloso 9 8 93 1018 10 N 5.5
Ieri h: 04:50 sereno Sereno 9 7 87 1018 10 S 9.3
Ieri h: 04:20 sereno Sereno 10 8 87 1018 10 S 7.4
Ieri h: 03:50 sereno Sereno 10 8 87 1018 10 S 9.3
Ieri h: 03:20 coperto Coperto 10 8 87 1018 10 S/SE 11.1
Ieri h: 02:50 molto_nuvoloso Molto Nuvoloso 10 8 87 1018 10 S 13